AQI (55)

Current Conditions for Foresthill, CA. Clear skies, Dry   
Visibility: 10 miles
Space WX Alerts: CONTINUED ALERT:  Electron 2MeV Integral Flux exceeded 1000pfu ( Latest Alert ) - Issue Time: 2018 Dec 11 1300 UTC

  Summary / Temperature 

Current Temperature
41.4°F
5.2°C
(24/hr Ago)
43.8°F
(Apparent temp)
38.7°F
Cool
Wind Chill Graphs
41.4°F 
Wind Chill-Avg
42.8°F 6°C
 --- Virtual Temp: 43.0°F ---

 Temp Rate:

 24/hr Difference:

 Avg Running Temp:

 Todays High:

 Todays Low:

 Y-days High:

 Y-days Low:

 Todays WChill:

 Y-days WChill:

 Evapotranspiration:

-1.8°F/hr 

-2.4°F

43.1°F

48.5°F 1:13pm

40.0°F 1:26am

50.1°F 2:09pm

40.7°F 11:53pm

34.0°F 6:07am

32.7°F 1:02am

0.046 in

115' Above Ground

 Temperature:

 6'AGL VRS 115'AGL:

 Avg Running Temp:

 Humidity:

 Todays High:

 Todays Low:

 Y-days High:

 Y-days Low:

42.0°F 

+0.6°F

43.7°F

82% 

53.0°F 12:48pm

42.0°F 5:36pm

52.0°F 2:11pm

44.0°F 9:40pm

Temp & Humidity Graphs

  Wind 

Wind Speed

 Calm

Gusting to

 6.0 mph

Calm

155°  

Calm

 Avg speed:

 Wind Run:

 Peak Gust:

Calm 

10.0 miles

  12.0 mph 5:07am

  Almanac  

Moon age: 4 days,8 hours,15 minutes,20%

Waxing Crescent
20%
Illuminated
4 days in cycle

 Moonrise:

 Moonset:

 Sunrise:

 Sunset:

 Solar Noon:

10:34am

8:46pm

7:11am

4:40pm

11:57am

0min 40s less daylight tomorrow 

  Solar Radiation 

(Current Solar)
  No Sun Light
(Todays High)
 476 W/m2@11:46am

Rain

 Rain Today:

 Rain Rate (/hr):

 Rain last hour:

 Rain Yesterday:

 This Month:

 Season Total:

5 Days Since Last Rain Day

0.00 in

0.000 in

0.00 in

0.00 in

1.05 in

9.55 in

Updated Time

Updated: 12/11/18  6:00pm

(Updated  sec ago)

Humidity & Barometer

 Humidity:

 Wetbulb:

 Dew Point:

 Barometer:

85% 

39.5°F 

37.2°F 

30.229 inHg 

 Baro Trend:  Steady 
Northern Calif
Preparedness
Fire 
Level 

    UV Index  

(Current UV)
0.0  None
(Todays High) @ 11:46am
1.9   Low

National Weather Service Forecast

This
Afternoon
This Afternoon: Mostly Sunny
Mostly Sunny
Tonight

Tonight: Partly Cloudy
Partly Cloudy
Wednesday

Wednesday: Sunny
Sunny
Wednesday
Night
Wednesday Night: Partly Cloudy
Partly Cloudy
Thursday

Thursday: Mostly Sunny
Mostly Sunny
Thursday
Night
Thursday Night: Partly Cloudy
Partly Cloudy
Hi 52 °F ↓ Lo 40 °F Hi 55 °F ↓ Lo 39 °F Hi 56 °F Lo 43 °F

Foresthill Probe 2 Stats  
Foresthill Probe 2: is located on Thomas Street
at 3000 feet. The main Foresthill Weather site
is located on Melody ln at the 2860 foot elevation

Calm
40.7°F
4.8°C
Temp Rate:
-1.9°F
Calm
Gusting to
1.0 mph
(Humidity)
87%
Wind from NW
313°  NW
Updated: 11/12/18 - 17:55:45
 Todays High: 49.4°F 12:53
 Todays Low: 38.5°F 02:06
 Rain Today: 0.00 in
 Season Total: 9.72 in

Foresthill Wx: Monthly,Yearly, Highs and Lows 

Foresthill  
This Weather Data is coming from the main Foresthill
Weather site located on Melody ln at the 2860 foot
elevation
Not Foresthill Probe 2
Weather Data
Month
  High
Month
  Low
Year
High
Year
Low
Temp 52.0°F
12/8/18
31.7°F
12/2/18
93.9°F
8/10/18
21.9°F
2/23/18
Humidity 100%
12/1/18
54%
12/9/18
100%
1/8/18
9%
10/15/18
Heat Index 55.1°F
12/8/18
36.0°F
12/3/18
93.3°F
7/25/18
27.1°F
2/20/18
Wind Chill 52.0°F
12/8/18
19.7°F
12/3/18
93.9°F
8/10/18
9.2°F
2/23/18
Wind Gust 25 mph
12/1/18
0 mph
12/1/18
43 mph
3/1/18
0 mph
1/1/18
Barometer 30.41 in
12/9/18
29.92 in
12/5/18
30.55 in
1/27/18
29.53 in
11/29/18
ET 0.05 in
12/7/18
0.00 in
12/1/18
0.25 in
6/24/18
0.00 in
1/1/18
Dew Point 44.0°F
12/8/18
26.3°F
12/3/18
66.9°F
7/24/18
0.7°F
11/8/18
Pacific Satellite US Radar Satellite Imagery Sacramento,CA.  (click to enlarge)
NWS Weather Forecast - Summary
Updated: Tuesday, December 11, 2018 - 1:10pm PST
Current Interstate Highway Conditions for I-80 & US-50

[I 80: IN THE SAN FRANCISCO BAY AREA - SOLANO CO]
no traffic restrictions are reported for this area.

[I 80: IN THE NORTHERN CALIFORNIA AREA & SIERRA NEVADA]
eastbound traffic is reduced to 1 lane 1 mi east of colfax (PLACER CO) - due to a big rig collision

[US 50: IN THE SACRAMENTO VALLEY & THE LAKE TAHOE BASIN]
the westbound connector to southbound sr 99 /in sacramento/ (sacramento co)   Is closed from 11:00pm each night to 5:00am each morning 7 days a week thru 12/15/18 - due to construction - a detour is available
  1-way controlled traffic at various locations from strawberry lodge dr /in strawberry/ to 2. 8 mi west of echo summit /at alpine ave/ (EL DORADO CO) from 7:00am to 5:30pm tuesday thru thursday thru 12/13/18 - due to construction
NWS Weather Forecast: This Afternoon and Tonight (Updated: Tue, 11-Dec-2018 2:33pm PST)
This
Afternoon
This Afternoon: Mostly Sunny
Mostly Sunny

Hi 52 °F ↓
NWS forecast: Mostly sunny. High near 52, with temperatures falling to around 48 in the afternoon. West southwest wind around 2 mph.
Tonight

Tonight: Partly Cloudy
Partly Cloudy

Lo 40 °F
NWS forecast: Partly cloudy, with a low around 40. East northeast wind around 5 mph.
YR.NO 10 Day Weather forecast
Last update: 12/11/2018 @ 11:30
Next update: 12/12/2018 @ 00:00
Provided by: 22
      Temperature Precipitation Pressure Wind  
Today
12/11/2018
15:00 18:00 48°F   30.14 inHg Light air from southwest 2 mph
  18:00 00:00 41°F   30.16 inHg Light air from east 2 mph
    (Click to enlarge)
meteogram

    Forecast for next 9 days

      Temperature Precip Pressure Wind  
Wednesday
12/12/2018
00:00 06:00 37°F   30.23 inHg Light breeze from east 4 mph
  06:00 12:00 34°F   30.27 inHg Light breeze from northeast 5 mph
  12:00 18:00 57°F   30.20 inHg Light air from north-northeast 3 mph
  18:00 00:00 39°F   30.20 inHg Light breeze from east-northeast 6 mph
      Temperature Precip Pressure Wind  
Thursday
12/13/2018
00:00 06:00 34°F   30.26 inHg Light breeze from east-northeast 5 mph
  06:00 12:00 32°F   30.27 inHg Light breeze from east-northeast 4 mph
  12:00 18:00 55°F   30.26 inHg Light air from southwest 2 mph
  18:00 00:00 43°F   30.17 inHg Light breeze from east-northeast 6 mph
      Temperature Precip Pressure Wind  
Friday
12/14/2018
00:00 06:00 39°F   30.15 inHg Light breeze from east-northeast 6 mph
  04:00 10:00 39°F   30.10 inHg Light breeze from east 6 mph
  10:00 16:00 55°F   30.10 inHg Light breeze from south 4 mph
  16:00 22:00 48°F 0.02 in 30.05 inHg Light breeze from south-southwest 7 mph
  22:00 04:00 45°F 0.03 in 30.12 inHg Light breeze from south-southeast 4 mph
      Temperature Precip Pressure Wind  
Saturday
12/15/2018
04:00 10:00 45°F   30.09 inHg Light breeze from east-southeast 6 mph
  10:00 16:00 48°F   30.11 inHg Light breeze from south 6 mph
  16:00 22:00 48°F   30.10 inHg Light air from south-southeast 3 mph
  22:00 04:00 48°F 0.20 in 30.12 inHg Light breeze from south-southeast 6 mph
      Temperature Precip Pressure Wind  
Sunday
12/16/2018
04:00 10:00 45°F   30.10 inHg Gentle breeze from east-southeast 8 mph
  10:00 16:00 50°F 0.07 in 30.12 inHg Gentle breeze from south-southeast 9 mph
  16:00 22:00 46°F 0.52 in 30.06 inHg Gentle breeze from southeast 10 mph
  22:00 04:00 45°F 1.39 in 30.06 inHg Gentle breeze from south-southeast 9 mph
      Temperature Precip Pressure Wind  
Monday
12/17/2018
04:00 10:00 43°F 0.16 in 30.17 inHg Light breeze from south-southeast 6 mph
  10:00 16:00 45°F   30.27 inHg Light breeze from south-southeast 6 mph
  16:00 22:00 46°F   30.26 inHg Light breeze from west-southwest 4 mph
  22:00 04:00 36°F   30.32 inHg Light breeze from east-northeast 4 mph
      Temperature Precip Pressure Wind  
Tuesday
12/18/2018
04:00 10:00 37°F   30.33 inHg Light air from east-northeast 3 mph
  10:00 16:00 52°F   30.36 inHg Light air from north-northwest 2 mph
  16:00 22:00 52°F   30.29 inHg Light air from west 2 mph
  22:00 04:00 37°F   30.30 inHg Light breeze from east-northeast 6 mph
      Temperature Precip Pressure Wind  
Wednesday
12/19/2018
04:00 10:00 36°F   30.22 inHg Light breeze from east-northeast 5 mph
  10:00 16:00 55°F   30.23 inHg Light air from east-southeast 2 mph
  16:00 22:00 52°F   30.19 inHg Light air from south 2 mph
  22:00 04:00 34°F   30.20 inHg Light air from east-northeast 3 mph
      Temperature Precip Pressure Wind  
Thursday
12/20/2018
04:00 10:00 34°F   30.13 inHg Light breeze from east-northeast 5 mph
  10:00 16:00 54°F   30.20 inHg Light air from north-northeast 1 mph
  16:00 22:00 50°F   30.14 inHg Light air from east-southeast 3 mph
  22:00 04:00 45°F   30.19 inHg Light air from east-northeast 1 mph

NOAA Local Storm Report
7 MILES EAST OF LIGHTHOUSE POINT   ( More )
DATE
12/08/2018
TIME
10:33 AM
COUNTY
AMZ650
STATE
FL
GEOGRAPHIC
26.30N 79.97W
SOURCE
TRAINED SPOTTER
WATER SPOUT
trained spotter sent photo via social media of a funnel cloud to the east of boca raton, that dissipated before the associated shower reached the shore.
How Close Are We To this Month's Temperature Record ?
Updated Tuesday, Dec 11, 2018- 5:55:01 PM

Current Temperature: 41.4°F

December's High: Temperature Record 65.8°F - Set on Tue, Dec 17, 2013 - 1:22:00 PM
We are currently 24.4°F Less than this Month's record High

December's Low: Temperature Record 20.2°F - Set on Sun, Dec 8, 2013 - 7:26:00 AM
We are currently 21.2°F More than this Month's record Low

Weather History For Tuesday, December 11, 2018


On this Day - In Weather History ...
Data courtesy of weatherforyou.com
powered by Cumulus v1.9.3 (1059)
Ambient Weather VWS v14.00
Top Contact Website Map Copyright © 2007 - 2018 Foresthillweather.com Never base important decisions on this or any weather information obtained from the Internet